When you browse on this site, cookies collect data to enhance your experience and personalize the content and advertising you see.
Visit our Privacy Policy to learn more. By continuing to use the site, you agree to this use of cookies and data.
  • In France
  • List of Countries
  • For 7 days
  • Water Temperature
  • Satellite Maps
  • Weather Map
  • Weather Widgets
  • user-avatar
    Login

    Hourly Weather Santa Fe

    Today, 16 November, Friday

    Time Temperature Precipitation Wind Pressure Humidity
    00:00 +20°C° 0 mm 2 mps 758 mmHg 66%
    01:00 +20°C° 0 mm 3 mps 758 mmHg 67%
    02:00 +19°C° 0 mm 4 mps 759 mmHg 69%
    03:00 +19°C° 0 mm 4 mps 759 mmHg 72%
    04:00 +19°C° 0 mm 4 mps 760 mmHg 74%
    05:00 +17°C° 0 mm 5 mps 760 mmHg 76%
    06:00 +19°C° 0 mm 5 mps 760 mmHg 75%
    07:00 +20°C° 0 mm 5 mps 760 mmHg 73%
    08:00 +22°C° 0 mm 5 mps 760 mmHg 71%
    09:00 +25°C° 0 mm 5 mps 760 mmHg 66%
    10:00 +27°C° 0 mm 5 mps 760 mmHg 61%
    11:00 +29°C° 0 mm 4 mps 759 mmHg 56%
    12:00 +29°C° 0 mm 5 mps 759 mmHg 54%
    13:00 +30°C° 0 mm 5 mps 758 mmHg 51%
    14:00 +32°C° 0 mm 5 mps 757 mmHg 48%
    15:00 +32°C° 0 mm 4 mps 756 mmHg 51%
    16:00 +32°C° 0 mm 4 mps 756 mmHg 54%
    17:00 +30°C° 0 mm 4 mps 755 mmHg 58%
    18:00 +29°C° 0 mm 4 mps 755 mmHg 63%
    19:00 +27°C° 0 mm 4 mps 755 mmHg 67%
    20:00 +25°C° 0 mm 4 mps 755 mmHg 72%
    21:00 +25°C° 0 mm 4 mps 755 mmHg 73%
    22:00 +23°C° 0 mm 4 mps 755 mmHg 73%
    23:00 +23°C° 0 mm 4 mps 755 mmHg 74%

    Tomorrow, 17 November, Saturday

    Time Temperature Precipitation Wind Pressure Humidity
    00:00 +23°C° 0 mm 4 mps 754 mmHg 76%
    01:00 +22°C° 0 mm 4 mps 754 mmHg 77%
    02:00 +22°C° 0 mm 4 mps 753 mmHg 79%
    03:00 +21°C° 0 mm 4 mps 753 mmHg 79%
    04:00 +21°C° 0 mm 4 mps 753 mmHg 79%
    05:00 +21°C° 0 mm 4 mps 752 mmHg 79%
    06:00 +22°C° 0.2 mm 4 mps 752 mmHg 77%
    07:00 +25°C° 0.2 mm 4 mps 752 mmHg 76%
    08:00 +26°C° 0.2 mm 5 mps 752 mmHg 74%
    09:00 +28°C° 0.5 mm 4 mps 752 mmHg 70%
    10:00 +29°C° 0.5 mm 4 mps 752 mmHg 66%
    11:00 +32°C° 0.5 mm 4 mps 752 mmHg 62%
    12:00 +32°C° 1.9 mm 4 mps 752 mmHg 62%
    13:00 +33°C° 1.9 mm 3 mps 752 mmHg 62%
    14:00 +33°C° 1.9 mm 3 mps 751 mmHg 62%
    15:00 +32°C° 0.1 mm 5 mps 752 mmHg 62%
    16:00 +30°C° 0.1 mm 6 mps 752 mmHg 62%
    17:00 +31°C° 0.1 mm 8 mps 752 mmHg 63%
    18:00 +28°C° 0 mm 7 mps 753 mmHg 61%
    19:00 +26°C° 0 mm 7 mps 754 mmHg 60%
    20:00 +24°C° 0 mm 6 mps 755 mmHg 59%
    21:00 +22°C° 0 mm 6 mps 756 mmHg 54%
    22:00 +21°C° 0 mm 5 mps 757 mmHg 50%
    23:00 +20°C° 0 mm 5 mps 759 mmHg 46%

    Day after tomorrow, 18 November, Sunday

    Time Temperature Precipitation Wind Pressure Humidity
    00:00 +19°C° 0 mm 5 mps 759 mmHg 46%
    01:00 +18°C° 0 mm 4 mps 759 mmHg 46%
    02:00 +17°C° 0 mm 3 mps 759 mmHg 46%
    03:00 +16°C° 0 mm 3 mps 760 mmHg 50%
    04:00 +16°C° 0 mm 3 mps 760 mmHg 53%
    05:00 +15°C° 0 mm 2 mps 761 mmHg 57%
    06:00 +17°C° 0 mm 2 mps 761 mmHg 54%
    07:00 +19°C° 0 mm 2 mps 762 mmHg 51%
    08:00 +21°C° 0 mm 2 mps 762 mmHg 48%
    09:00 +23°C° 0 mm 2 mps 762 mmHg 42%
    10:00 +24°C° 0 mm 2 mps 762 mmHg 36%
    11:00 +26°C° 0 mm 3 mps 763 mmHg 31%
    12:00 +27°C° 0 mm 2 mps 762 mmHg 30%
    13:00 +27°C° 0 mm 1 mps 762 mmHg 29%
    14:00 +28°C° 0 mm 1 mps 761 mmHg 28%
    15:00 +28°C° 0 mm 1 mps 761 mmHg 31%
    16:00 +27°C° 0 mm 1 mps 760 mmHg 33%
    17:00 +27°C° 0 mm 1 mps 760 mmHg 36%
    18:00 +25°C° 0 mm 1 mps 760 mmHg 39%
    19:00 +23°C° 0 mm 2 mps 761 mmHg 43%
    20:00 +19°C° 0 mm 2 mps 761 mmHg 46%
    21:00 +19°C° 0 mm 2 mps 761 mmHg 49%
    22:00 +18°C° 0 mm 2 mps 761 mmHg 51%
    23:00 +17°C° 0 mm 2 mps 761 mmHg 53%

    19 November, Monday

    Time Temperature Precipitation Wind Pressure Humidity
    00:00 +17°C° 0 mm 2 mps 761 mmHg 55%
    01:00 +16°C° 0 mm 2 mps 761 mmHg 57%
    02:00 +16°C° 0 mm 2 mps 760 mmHg 59%
    03:00 +15°C° 0 mm 2 mps 760 mmHg 61%
    04:00 +15°C° 0 mm 2 mps 760 mmHg 63%
    05:00 +14°C° 0 mm 2 mps 760 mmHg 66%
    06:00 +16°C° 0 mm 3 mps 761 mmHg 62%
    07:00 +18°C° 0 mm 4 mps 761 mmHg 58%
    08:00 +21°C° 0 mm 4 mps 761 mmHg 54%
    09:00 +22°C° 0 mm 4 mps 761 mmHg 50%
    10:00 +25°C° 0 mm 5 mps 761 mmHg 45%
    11:00 +27°C° 0 mm 5 mps 761 mmHg 41%
    12:00 +27°C° 0 mm 5 mps 760 mmHg 40%
    13:00 +28°C° 0 mm 5 mps 759 mmHg 39%
    14:00 +29°C° 0 mm 4 mps 758 mmHg 38%
    15:00 +29°C° 0 mm 4 mps 758 mmHg 41%
    16:00 +28°C° 0 mm 4 mps 758 mmHg 44%
    17:00 +28°C° 0 mm 3 mps 757 mmHg 47%
    18:00 +26°C° 0 mm 3 mps 757 mmHg 53%
    19:00 +24°C° 0 mm 3 mps 758 mmHg 58%
    20:00 +20°C° 0 mm 3 mps 758 mmHg 63%
    21:00 +20°C° 0 mm 3 mps 758 mmHg 65%
    22:00 +19°C° 0 mm 3 mps 759 mmHg 68%
    23:00 +18°C° 0 mm 3 mps 759 mmHg 70%

    20 November, Tuesday

    Time Temperature Precipitation Wind Pressure Humidity
    00:00 +18°C° 0 mm 3 mps 759 mmHg 72%
    01:00 +17°C° 0 mm 3 mps 759 mmHg 73%
    02:00 +17°C° 0 mm 3 mps 759 mmHg 74%
    03:00 +17°C° 0 mm 3 mps 759 mmHg 75%
    04:00 +16°C° 0 mm 3 mps 759 mmHg 76%
    05:00 +16°C° 0 mm 3 mps 759 mmHg 77%
    06:00 +18°C° 0 mm 3 mps 760 mmHg 70%
    07:00 +21°C° 0 mm 4 mps 760 mmHg 63%
    08:00 +23°C° 0 mm 4 mps 760 mmHg 56%
    09:00 +26°C° 0 mm 4 mps 760 mmHg 50%
    10:00 +28°C° 0 mm 4 mps 760 mmHg 45%
    11:00 +30°C° 0 mm 4 mps 760 mmHg 39%
    12:00 +32°C° 0 mm 4 mps 759 mmHg 37%
    13:00 +33°C° 0 mm 4 mps 758 mmHg 36%
    14:00 +34°C° 0 mm 4 mps 758 mmHg 34%
    15:00 +33°C° 0 mm 3 mps 757 mmHg 38%
    16:00 +33°C° 0 mm 3 mps 757 mmHg 42%
    17:00 +31°C° 0 mm 3 mps 757 mmHg 46%
    18:00 +29°C° 0 mm 3 mps 757 mmHg 53%
    19:00 +27°C° 0 mm 3 mps 757 mmHg 59%
    20:00 +24°C° 0 mm 3 mps 757 mmHg 66%
    21:00 +24°C° 0 mm 3 mps 757 mmHg 69%
    22:00 +22°C° 0 mm 3 mps 757 mmHg 72%
    23:00 +21°C° 0 mm 3 mps 758 mmHg 76%

    21 November, Wednesday

    Time Temperature Precipitation Wind Pressure Humidity
    00:00 +20°C° 0 mm 3 mps 757 mmHg 78%
    01:00 +20°C° 0 mm 3 mps 757 mmHg 79%
    02:00 +19°C° 0 mm 3 mps 757 mmHg 81%
    03:00 +19°C° 0 mm 3 mps 757 mmHg 83%
    04:00 +19°C° 0 mm 3 mps 757 mmHg 85%
    05:00 +18°C° 0 mm 3 mps 757 mmHg 87%
    06:00 +21°C° 0 mm 3 mps 757 mmHg 81%
    07:00 +23°C° 0 mm 4 mps 757 mmHg 74%
    08:00 +26°C° 0 mm 4 mps 757 mmHg 67%
    09:00 +28°C° 0 mm 4 mps 757 mmHg 60%
    10:00 +32°C° 0 mm 4 mps 756 mmHg 52%
    11:00 +34°C° 0 mm 4 mps 756 mmHg 44%
    12:00 +35°C° 0 mm 4 mps 755 mmHg 42%
    13:00 +36°C° 0 mm 4 mps 755 mmHg 39%
    14:00 +37°C° 0 mm 4 mps 754 mmHg 37%
    15:00 +36°C° 0 mm 3 mps 754 mmHg 40%
    16:00 +36°C° 0 mm 3 mps 753 mmHg 43%
    17:00 +36°C° 0 mm 3 mps 753 mmHg 46%
    18:00 +33°C° 0 mm 3 mps 753 mmHg 51%
    19:00 +30°C° 0 mm 3 mps 754 mmHg 57%
    20:00 +28°C° 0 mm 3 mps 754 mmHg 62%
    21:00 +27°C° 0 mm 3 mps 754 mmHg 65%
    22:00 +27°C° 0 mm 3 mps 754 mmHg 68%
    23:00 +26°C° 0 mm 3 mps 754 mmHg 71%
    Show more